When you browse on this site, cookies collect data to enhance your experience and personalize the content and advertising you see.
Visit our Privacy Policy to learn more. By continuing to use the site, you agree to this use of cookies and data.
  • In Hungary
  • List of Countries
  • For 7 days
  • Water Temperature
  • Satellite Maps
  • Weather Map
  • News
  • Weather Widgets
  • user-avatar
    Login

    Hourly Weather Potapivka

    Today, 22 July, Monday

    Time Temperature Precipitation Wind Pressure Humidity
    00:00 +16°C° 0 mm 0 mps 747 mmHg 82%
    01:00 +16°C° 0 mm 0 mps 746 mmHg 83%
    02:00 +16°C° 0 mm 0 mps 747 mmHg 80%
    03:00 +18°C° 0 mm 1 mps 747 mmHg 80%
    04:00 +18°C° 0 mm 1 mps 747 mmHg 81%
    05:00 +18°C° 0 mm 1 mps 747 mmHg 81%
    06:00 +20°C° 0 mm 1 mps 746 mmHg 77%
    07:00 +22°C° 0 mm 1 mps 746 mmHg 73%
    08:00 +24°C° 0 mm 2 mps 746 mmHg 69%
    09:00 +25°C° 0.3 mm 2 mps 746 mmHg 66%
    10:00 +26°C° 0.3 mm 2 mps 746 mmHg 63%
    11:00 +27°C° 0.3 mm 3 mps 746 mmHg 60%
    12:00 +27°C° 0.3 mm 3 mps 746 mmHg 59%
    13:00 +27°C° 0.3 mm 3 mps 745 mmHg 59%
    14:00 +27°C° 0.3 mm 3 mps 745 mmHg 58%
    15:00 +26°C° 1.4 mm 3 mps 745 mmHg 66%
    16:00 +25°C° 1.4 mm 2 mps 744 mmHg 75%
    17:00 +23°C° 1.4 mm 2 mps 744 mmHg 83%
    18:00 +21°C° 2.5 mm 2 mps 744 mmHg 87%
    19:00 +21°C° 2.5 mm 1 mps 743 mmHg 91%
    20:00 +19°C° 2.5 mm 1 mps 743 mmHg 95%
    21:00 +18°C° 0.1 mm 2 mps 743 mmHg 95%
    22:00 +17°C° 0.1 mm 2 mps 743 mmHg 95%
    23:00 +17°C° 0.1 mm 2 mps 743 mmHg 96%

    Tomorrow, 23 July, Tuesday

    Time Temperature Precipitation Wind Pressure Humidity
    00:00 +16°C° 0 mm 2 mps 743 mmHg 96%
    01:00 +16°C° 0 mm 2 mps 742 mmHg 97%
    02:00 +16°C° 0 mm 2 mps 742 mmHg 97%
    03:00 +16°C° 0 mm 2 mps 742 mmHg 97%
    04:00 +16°C° 0 mm 2 mps 742 mmHg 97%
    05:00 +16°C° 0 mm 2 mps 742 mmHg 96%
    06:00 +17°C° 0 mm 2 mps 742 mmHg 93%
    07:00 +18°C° 0 mm 2 mps 742 mmHg 90%
    08:00 +19°C° 0 mm 3 mps 742 mmHg 88%
    09:00 +20°C° 0 mm 3 mps 742 mmHg 85%
    10:00 +20°C° 0 mm 3 mps 742 mmHg 82%
    11:00 +21°C° 0 mm 4 mps 742 mmHg 79%
    12:00 +21°C° 0 mm 4 mps 742 mmHg 79%
    13:00 +21°C° 0 mm 4 mps 742 mmHg 79%
    14:00 +21°C° 0 mm 3 mps 742 mmHg 79%
    15:00 +20°C° 0 mm 3 mps 742 mmHg 79%
    16:00 +20°C° 0 mm 3 mps 742 mmHg 79%
    17:00 +20°C° 0 mm 2 mps 742 mmHg 79%
    18:00 +19°C° 0 mm 2 mps 741 mmHg 81%
    19:00 +19°C° 0 mm 1 mps 741 mmHg 83%
    20:00 +19°C° 0 mm 1 mps 741 mmHg 85%
    21:00 +18°C° 0 mm 1 mps 741 mmHg 87%
    22:00 +16°C° 0 mm 1 mps 741 mmHg 89%
    23:00 +16°C° 0 mm 1 mps 741 mmHg 91%

    Day after tomorrow, 24 July, Wednesday

    Time Temperature Precipitation Wind Pressure Humidity
    00:00 +15°C° 0 mm 1 mps 741 mmHg 91%
    01:00 +15°C° 0 mm 1 mps 741 mmHg 92%
    02:00 +14°C° 0 mm 0 mps 741 mmHg 92%
    03:00 +14°C° 0 mm 0 mps 741 mmHg 92%
    04:00 +14°C° 0 mm 0 mps 741 mmHg 92%
    05:00 +14°C° 0 mm 0 mps 741 mmHg 92%
    06:00 +16°C° 0.7 mm 1 mps 741 mmHg 88%
    07:00 +19°C° 0.7 mm 1 mps 741 mmHg 83%
    08:00 +20°C° 0.7 mm 1 mps 741 mmHg 79%
    09:00 +20°C° 0.6 mm 2 mps 741 mmHg 73%
    10:00 +21°C° 0.6 mm 2 mps 741 mmHg 68%
    11:00 +22°C° 0.6 mm 3 mps 741 mmHg 62%
    12:00 +22°C° 0.5 mm 3 mps 741 mmHg 64%
    13:00 +22°C° 0.5 mm 3 mps 741 mmHg 66%
    14:00 +22°C° 0.5 mm 4 mps 741 mmHg 68%
    15:00 +21°C° 0.4 mm 4 mps 741 mmHg 70%
    16:00 +21°C° 0.4 mm 4 mps 741 mmHg 72%
    17:00 +20°C° 0.4 mm 4 mps 741 mmHg 73%
    18:00 +19°C° 0 mm 3 mps 741 mmHg 78%
    19:00 +17°C° 0 mm 2 mps 741 mmHg 82%
    20:00 +16°C° 0 mm 2 mps 741 mmHg 87%
    21:00 +15°C° 0 mm 2 mps 741 mmHg 89%
    22:00 +14°C° 0 mm 2 mps 741 mmHg 91%
    23:00 +14°C° 0 mm 2 mps 741 mmHg 93%

    25 July, Thursday

    Time Temperature Precipitation Wind Pressure Humidity
    00:00 +13°C° 0 mm 2 mps 741 mmHg 94%
    01:00 +13°C° 0 mm 1 mps 741 mmHg 95%
    02:00 +13°C° 0 mm 1 mps 741 mmHg 96%
    03:00 +13°C° 0 mm 1 mps 741 mmHg 96%
    04:00 +13°C° 0 mm 1 mps 741 mmHg 96%
    05:00 +13°C° 0 mm 0 mps 741 mmHg 96%
    06:00 +15°C° 0 mm 1 mps 741 mmHg 91%
    07:00 +18°C° 0 mm 1 mps 741 mmHg 85%
    08:00 +19°C° 0 mm 1 mps 742 mmHg 80%
    09:00 +19°C° 0 mm 2 mps 742 mmHg 75%
    10:00 +21°C° 0 mm 2 mps 742 mmHg 71%
    11:00 +22°C° 0 mm 3 mps 742 mmHg 66%
    12:00 +22°C° 0 mm 3 mps 742 mmHg 67%
    13:00 +22°C° 0 mm 3 mps 742 mmHg 68%
    14:00 +22°C° 0 mm 4 mps 742 mmHg 68%
    15:00 +21°C° 0 mm 4 mps 742 mmHg 73%
    16:00 +21°C° 0 mm 4 mps 742 mmHg 78%
    17:00 +20°C° 0 mm 4 mps 742 mmHg 82%
    18:00 +19°C° 0.1 mm 4 mps 742 mmHg 87%
    19:00 +18°C° 0.1 mm 4 mps 742 mmHg 91%
    20:00 +17°C° 0.1 mm 3 mps 742 mmHg 96%
    21:00 +18°C° 0 mm 4 mps 742 mmHg 95%
    22:00 +18°C° 0 mm 4 mps 742 mmHg 94%
    23:00 +17°C° 0 mm 5 mps 743 mmHg 93%

    26 July, Friday

    Time Temperature Precipitation Wind Pressure Humidity
    00:00 +17°C° 0.1 mm 4 mps 742 mmHg 94%
    01:00 +17°C° 0.1 mm 4 mps 742 mmHg 94%
    02:00 +17°C° 0.1 mm 4 mps 742 mmHg 94%
    03:00 +17°C° 0 mm 4 mps 742 mmHg 94%
    04:00 +16°C° 0 mm 5 mps 743 mmHg 94%
    05:00 +17°C° 0 mm 5 mps 743 mmHg 94%
    06:00 +17°C° 0 mm 5 mps 743 mmHg 93%
    07:00 +19°C° 0 mm 5 mps 743 mmHg 91%
    08:00 +19°C° 0 mm 5 mps 743 mmHg 89%
    09:00 +19°C° 0 mm 4 mps 743 mmHg 88%
    10:00 +19°C° 0 mm 4 mps 744 mmHg 88%
    11:00 +19°C° 0 mm 4 mps 744 mmHg 87%
    12:00 +21°C° 0.2 mm 4 mps 744 mmHg 81%
    13:00 +23°C° 0.2 mm 4 mps 743 mmHg 75%
    14:00 +26°C° 0.2 mm 4 mps 743 mmHg 70%
    15:00 +25°C° 0.5 mm 4 mps 743 mmHg 73%
    16:00 +25°C° 0.5 mm 4 mps 743 mmHg 76%
    17:00 +25°C° 0.5 mm 4 mps 743 mmHg 79%
    18:00 +22°C° 0.6 mm 4 mps 743 mmHg 82%
    19:00 +21°C° 0.6 mm 4 mps 743 mmHg 86%
    20:00 +20°C° 0.6 mm 4 mps 743 mmHg 89%
    21:00 +19°C° 0.1 mm 4 mps 743 mmHg 90%
    22:00 +18°C° 0.1 mm 4 mps 743 mmHg 91%
    23:00 +18°C° 0.1 mm 4 mps 743 mmHg 92%

    27 July, Saturday

    Time Temperature Precipitation Wind Pressure Humidity
    00:00 +17°C° 0 mm 4 mps 743 mmHg 92%
    01:00 +17°C° 0 mm 4 mps 742 mmHg 93%
    02:00 +17°C° 0 mm 4 mps 742 mmHg 94%
    03:00 +15°C° 0 mm 4 mps 742 mmHg 94%
    04:00 +15°C° 0 mm 4 mps 742 mmHg 93%
    05:00 +15°C° 0 mm 4 mps 742 mmHg 93%
    06:00 +18°C° 0 mm 4 mps 742 mmHg 89%
    07:00 +20°C° 0 mm 4 mps 743 mmHg 85%
    08:00 +21°C° 0 mm 4 mps 743 mmHg 81%
    09:00 +22°C° 0 mm 5 mps 743 mmHg 77%
    10:00 +23°C° 0 mm 5 mps 743 mmHg 72%
    11:00 +24°C° 0 mm 6 mps 743 mmHg 68%
    12:00 +24°C° 0.2 mm 6 mps 743 mmHg 67%
    13:00 +26°C° 0.2 mm 6 mps 742 mmHg 66%
    14:00 +26°C° 0.2 mm 6 mps 742 mmHg 64%
    15:00 +26°C° 0 mm 5 mps 742 mmHg 66%
    16:00 +25°C° 0 mm 4 mps 742 mmHg 68%
    17:00 +25°C° 0 mm 4 mps 742 mmHg 70%
    18:00 +22°C° 0 mm 3 mps 742 mmHg 74%
    19:00 +21°C° 0 mm 3 mps 742 mmHg 78%
    20:00 +19°C° 0 mm 2 mps 742 mmHg 82%
    21:00 +19°C° 0 mm 2 mps 742 mmHg 84%
    22:00 +18°C° 0 mm 2 mps 742 mmHg 87%
    23:00 +18°C° 0 mm 3 mps 742 mmHg 90%
    Show more